Change the Weather History Date:

Thursday, December 26, 2013

  Actual Average (KSYR) Record (KSYR)
Temperature  
Mean Temperature 26 °F 26 °F  
Max Temperature 30 °F 33 °F 60 °F (1982)
Min Temperature 21 °F 19 °F -12 °F (1914)
Degree Days  
Heating Degree Days 40 39  
Month to date heating degree days 906  
Since 1 July heating degree days 2255  
Cooling Degree Days 0 0  
Month to date cooling degree days 0  
Year to date cooling degree days 569  
Moisture  
Dew Point 20 °F    
Average Humidity 79    
Maximum Humidity 88    
Minimum Humidity 61    
Precipitation  
Precipitation 0.03 in 0.09 in 1.35 in (1913)
Month to date precipitation 2.75  
Year to date precipitation 38.00  
Snow  
Snow 0.00 in 1.10 in 14.60 in (1969)
Month to date snowfall 27.2  
Since 1 July snowfall 37.1  
Snow Depth -    
Sea Level Pressure  
Sea Level Pressure 30.15 in    
Wind  
Wind Speed 5 mph (SSW)    
Max Wind Speed 15 mph    
Max Gust Speed 23 mph    
Visibility 5 miles    
Events Snow    
T = Trace of Precipitation, MM = Missing Value Source: NWS Daily Summary

Daily Weather History Graph

Daily Weather History Graph

Search for Another Location

Airport or City:

Trip Planner

Search our weather history database for the weather conditions in past years. The results will help you decide how hot, cold, wet, or windy it might be!

Date:

Astronomy

Dec. 26, 2013 Rise Set
Actual Time 7:36 AM EST 4:35 PM EST
Civil Twilight 7:04 AM EST 5:08 PM EST
Nautical Twilight 6:28 AM EST 5:44 PM EST
Astronomical Twilight 5:53 AM EST 6:19 PM EST
Moon 12:55 AM EST (12/26) 12:16 PM EST (12/26)
Length of Visible Light 10h 04m
Length of Day
8h 58m
Last Quarter, 38% of the Moon is Illuminated
Dec 26
Last Quarter
Jan 1
New
Jan 7
First Quarter
Jan 15
Full
Jan 24
Last Quarter

Hourly Weather History & Observations

Time (EST) Temp. Windchill Dew Point Humidity Pressure Visibility Wind Dir Wind Speed Gust Speed Precip Events Conditions
12:54 AM 21.0 °F 16.2 °F 14.0 °F 74% 30.27 in 2.0 mi SSE 3.5 mph - 0.00 in Snow Light Snow
1:01 AM 21.2 °F 16.4 °F 15.8 °F 80% 30.23 in 1.2 mi SSE 3.5 mph - 0.00 in Snow Light Snow
1:21 AM 21.2 °F 14.9 °F 17.6 °F 86% 30.23 in 1.0 mi Variable 4.6 mph - 0.01 in Snow Light Snow
1:32 AM 21.2 °F 16.4 °F 17.6 °F 86% 30.23 in 1.2 mi Variable 3.5 mph - 0.01 in Snow Light Snow
1:54 AM 21.0 °F 16.2 °F 17.1 °F 85% 30.25 in 2.5 mi Variable 3.5 mph - 0.01 in Snow Light Snow
2:01 AM 21.2 °F - 17.6 °F 86% 30.22 in 6.0 mi Calm Calm - 0.00 in Snow Light Snow
2:54 AM 21.9 °F 14.5 °F 18.0 °F 85% 30.24 in 10.0 mi SE 5.8 mph - 0.00 in   Overcast
3:54 AM 23.0 °F 17.0 °F 18.0 °F 81% 30.21 in 10.0 mi Variable 4.6 mph - 0.00 in   Overcast
4:54 AM 23.0 °F 17.0 °F 19.0 °F 85% 30.18 in 10.0 mi Variable 4.6 mph - N/A   Overcast
5:54 AM 23.0 °F 17.0 °F 19.0 °F 85% 30.18 in 5.0 mi Variable 4.6 mph - N/A   Overcast
6:54 AM 23.0 °F 14.7 °F 19.9 °F 88% 30.16 in 3.0 mi Variable 6.9 mph - 0.01 in Snow Light Snow
7:31 AM 23.0 °F 15.8 °F 19.4 °F 86% 30.13 in 2.5 mi SE 5.8 mph - 0.00 in Snow Light Snow
7:46 AM 23.0 °F 15.8 °F 19.4 °F 86% 30.12 in 3.0 mi ESE 5.8 mph - 0.00 in Snow Light Snow
7:54 AM 23.0 °F 18.4 °F 19.9 °F 88% 30.15 in 3.0 mi SE 3.5 mph - 0.00 in Snow Light Snow
8:01 AM 23.0 °F 17.0 °F 19.4 °F 86% 30.12 in 2.5 mi Variable 4.6 mph - 0.00 in Snow Light Snow
8:33 AM 24.8 °F 19.1 °F 19.4 °F 80% 30.12 in 4.0 mi ESE 4.6 mph - 0.00 in Snow Light Snow
8:54 AM 24.1 °F 18.2 °F 19.9 °F 84% 30.13 in 8.0 mi SE 4.6 mph - 0.00 in   Overcast
9:12 AM 24.8 °F 19.1 °F 19.4 °F 80% 30.11 in 1.8 mi SE 4.6 mph - 0.00 in Snow Light Snow
9:21 AM 24.8 °F 20.5 °F 19.4 °F 80% 30.11 in 1.0 mi SE 3.5 mph - 0.00 in Snow Light Snow
9:29 AM 24.8 °F 19.1 °F 19.4 °F 80% 30.11 in 0.8 mi SE 4.6 mph - 0.00 in Snow Light Snow
9:41 AM 24.8 °F 19.1 °F 19.4 °F 80% 30.12 in 1.0 mi Variable 4.6 mph - 0.00 in Snow Light Snow
9:54 AM 25.0 °F 20.7 °F 21.0 °F 85% 30.14 in 0.8 mi SSE 3.5 mph - 0.00 in Snow Light Snow
10:54 AM 26.1 °F 17.6 °F 21.9 °F 84% 30.12 in 1.0 mi South 8.1 mph - 0.01 in Snow Light Snow
11:05 AM 26.6 °F 18.2 °F 21.2 °F 80% 30.09 in 0.8 mi South 8.1 mph - 0.00 in Snow Light Snow
11:09 AM 26.6 °F 17.5 °F 21.2 °F 80% 30.09 in 1.2 mi South 9.2 mph - 0.00 in Snow Light Snow
11:54 AM 27.0 °F 19.5 °F 23.0 °F 85% 30.09 in 3.0 mi South 6.9 mph - 0.00 in Snow Light Snow
12:01 PM 28.4 °F 22.2 °F 23.0 °F 80% 30.07 in 5.0 mi South 5.8 mph - 0.00 in Snow Light Snow
12:54 PM 30.0 °F 21.7 °F 21.0 °F 69% 30.08 in 10.0 mi SSW 9.2 mph - 0.00 in   Overcast
1:54 PM 30.0 °F 24.1 °F 23.0 °F 75% 30.09 in 2.5 mi SW 5.8 mph - 0.00 in Snow Light Snow
2:03 PM 30.2 °F 24.3 °F 24.8 °F 80% 30.07 in 1.2 mi SW 5.8 mph - 0.00 in Snow Light Snow
2:10 PM 28.4 °F 22.2 °F 24.8 °F 86% 30.07 in 0.8 mi SW 5.8 mph - 0.00 in Snow Light Snow
2:20 PM 28.4 °F 23.3 °F 24.8 °F 86% 30.07 in 1.0 mi WSW 4.6 mph - 0.00 in Snow Light Snow
2:44 PM 30.2 °F 25.4 °F 26.6 °F 86% 30.08 in 1.2 mi SSW 4.6 mph - 0.00 in Snow Light Snow
2:54 PM 30.0 °F 25.2 °F 26.1 °F 85% 30.10 in 2.0 mi SSW 4.6 mph - 0.00 in Snow Light Snow
2:58 PM 30.2 °F 24.3 °F 26.6 °F 86% 30.08 in 3.0 mi SW 5.8 mph - 0.00 in Snow Light Snow
3:34 PM 28.4 °F 20.4 °F 24.8 °F 86% 30.10 in 10.0 mi WSW 8.1 mph - 0.00 in   Mostly Cloudy
3:54 PM 30.9 °F 21.2 °F 24.1 °F 76% 30.13 in 10.0 mi WSW 12.7 mph 18.4 mph 0.00 in   Mostly Cloudy
4:54 PM 30.0 °F 20.0 °F 19.9 °F 66% 30.16 in 10.0 mi WSW 12.7 mph - N/A   Mostly Cloudy
5:54 PM 30.0 °F 21.7 °F 19.9 °F 66% 30.19 in 10.0 mi WSW 9.2 mph - N/A   Overcast
6:54 PM 28.9 °F 19.2 °F 19.0 °F 67% 30.21 in 10.0 mi West 11.5 mph 19.6 mph N/A   Mostly Cloudy
7:54 PM 27.0 °F 18.0 °F 17.1 °F 66% 30.23 in 10.0 mi WSW 9.2 mph - N/A   Clear
8:54 PM 27.0 °F 21.6 °F 16.0 °F 63% 30.24 in 10.0 mi SW 4.6 mph - N/A   Mostly Cloudy
9:54 PM 28.0 °F 20.0 °F 16.0 °F 61% 30.24 in 10.0 mi WSW 8.1 mph - N/A   Overcast
10:54 PM 26.1 °F 17.6 °F 15.1 °F 63% 30.25 in 10.0 mi WSW 8.1 mph - N/A   Partly Cloudy
11:54 PM 26.1 °F 14.0 °F 15.1 °F 63% 30.25 in 10.0 mi WSW 15.0 mph 23.0 mph N/A   Clear